Regional Weather Roundup
Issued by NWS

Home | Current Version | Previous Version | Graphics & Text | Print | Product List | Glossary On
Versions: 1 2 3 4 5 6 7 8 9 10 11 12 13 14 15 16 17 18 19 20 21 22 23 24 25 26 27 28 29 30 31 32 33 34 35 36 37 38 39 40 41 42 43 44 45 46 47 48 49 50
000
ASUS43 KDTX 252301
RWRMI
MICHIGAN HOURLY REGIONAL WEATHER ROUNDUP
NATIONAL WEATHER SERVICE DETROIT/PONTIAC MI
600 PM EST TUE NOV 25 2014

NOTE: "FAIR" INDICATES FEW OR NO CLOUDS BELOW 12,000 FEET WITH NO
SIGNIFICANT WEATHER AND/OR OBSTRUCTION TO VISIBILITY.

MIZ047>049-052>055-059>063-066>070-074>076-081>083-260000-
SOUTHEAST LOWER MICHIGAN

CITY           SKY/WX    TMP DP  RH WIND       PRES   REMARKS
ADRIAN         CLOUDY    28  20  71 W10       30.17R WCI  19
ALMA           CLOUDY    30  22  71 W10       30.10R WCI  21
ANN ARBOR      CLOUDY    30  20  66 W14       30.13R WCI  19
BAD AXE        CLOUDY    32  26  78 W6        30.07R WCI  26
CARO           CLOUDY    32  25  74 SW7       30.07R WCI  26
DETROIT CITY   CLOUDY    33  21  61 W12       30.13R WCI  24
DETROIT        CLOUDY    31  21  66 SW12      30.15R WCI  22
FLINT          CLOUDY    33  22  63 W9        30.10R WCI  25
GROSSE ILE     CLOUDY    30  21  69 SW6       30.14R WCI  24
HILLSDALE      CLOUDY    27  22  79 W7        30.12R WCI  20
HOWELL         CLOUDY    30  23  75 W6        30.10R WCI  24

CITY           SKY/WX    TMP DP  RH WIND       PRES   REMARKS
JACKSON        CLOUDY    28  22  78 SW8       30.13R WCI  20
LAMBERTVILLE   CLOUDY    32  21  64 W7G17     30.17R WCI  26
LANSING        FLURRIES  30  21  69 W10       30.12R WCI  21
LAPEER         CLOUDY    31  24  76 W6        30.09R WCI  25
MASON          CLOUDY    30  24  76 W5        30.11R WCI  25
MONROE         CLOUDY    30  21  69 W10       30.14R WCI  21
MT. CLEMENS    CLOUDY    32  23  70 W7        30.10R WCI  26
PONTIAC        FLURRIES  30  22  72 SW8       30.09R WCI  22
PORT HOPE        N/A     33  23  66 W8        30.04R WCI  26
PORT HURON     CLOUDY    32  25  74 SW6       30.11R WCI  26
TRI CITIES     CLOUDY    33  22  63 W12       30.09R WCI  24
TROY           CLOUDY    33  23  67 W6        30.13R WCI  28
SAGINAW HB     CLOUDY    32  25  74 SW7       30.09R WCI  26
$$
MIZ043>046-050>051-056>058-064>065-071>073-077>080-260000-
SOUTHWEST LOWER MICHIGAN

CITY           SKY/WX    TMP DP  RH WIND       PRES   REMARKS
BATTLE CREEK   CLOUDY    30  20  66 W13       30.13R WCI  20
BENTON HARBOR  CLOUDY    28  21  75 SW7       30.14R WCI  21
BIG RAPIDS     LGT SNOW  28  25  91 SW6       30.07R WCI  21
COLDWATER      CLOUDY    29  23  81 W6        30.14R WCI  22
FREMONT        CLOUDY    28  22  80 W3        30.10R
HOLLAND        CLOUDY    31  22  69 W10       30.13R WCI  22
GRAND RAPIDS   FLURRIES  30  23  75 W12       30.11R WCI  20
IONIA          CLOUDY    31  23  73 W7        30.10R WCI  24
KALAMAZOO      CLOUDY    29  20  69 W6        30.14R WCI  23
LUDINGTON      CLOUDY    29  25  83 W6        30.11R WCI  23
MARSHALL       CLOUDY    28  21  77 W8        30.12R WCI  19
MOUNT PLEASANT CLOUDY    30  23  74 W9        30.08R WCI  22
MUSKEGON       CLOUDY    30  20  66 W8        30.12R WCI  22
SOUTH HAVEN    CLOUDY    31  22  71 W8        30.14R WCI  23
$$
MIZ016>042-260000-
NORTHERN LOWER MICHIGAN

CITY           SKY/WX    TMP DP  RH WIND       PRES   REMARKS
ALPENA         LGT SNOW  28  25  88 W5        30.03R FOG     WCI  23
BEAVER ISLAND  CLOUDY    29  20  68 W5        30.04R WCI  24
BELLAIRE       CLOUDY    30  23  77 SW5       30.07R WCI  25
CADILLAC       CLOUDY    26  21  84 W5        30.03R WCI  20
CHARLEVOIX     CLOUDY    29  22  75 W13       30.07R WCI  19
FRANKFORT      CLOUDY    28  22  79 W6        30.08R WCI  22
GAYLORD        CLOUDY    26  20  77 W7        30.01R WCI  18
GRAYLING       CLOUDY    28  25  86 W8        30.04R WCI  20
HARBOR SPRINGS CLOUDY    28  23  82 NW6       30.04R WCI  22
HOUGHTON LAKE  CLOUDY    27  20  75 W13       30.05R WCI  16
MANISTEE       CLOUDY    27  19  74 W10       30.10R WCI  17
OSCODA         CLOUDY    30  25  82 W8        30.04R WCI  23
PELLSTON       FLURRIES  27  20  75 W7        30.04R WCI  19
ROGERS CITY    CLOUDY    27  26  94 W5        30.04R WCI  22
TRAVERSE CITY  FLURRIES  29  22  75 SW6       30.06R WCI  23
$$
MIZ007>008-015-260000-
EASTERN UPPER MICHIGAN

CITY           SKY/WX    TMP DP  RH WIND       PRES   REMARKS
MACKINAC ISLAN MOCLDY    27  23  86 NW12      30.02R WCI  16
NEWBERRY       LGT SNOW  23  20  89 SW6       30.01R WCI  16
S. S. MARIE    LGT SNOW  26  23  88 NW8       30.01R FOG     WCI  18
MUNISING         N/A     25  13  60 W3        30.04R
$$
MIZ004>006-011>014-085-260000-
CENTRAL UPPER MICHIGAN

CITY           SKY/WX    TMP DP  RH WIND       PRES   REMARKS
MANISTIQUE     CLOUDY    24  18  79 W6        30.04R WCI  17
ESCANABA       PTCLDY    19  12  73 CALM      30.05R
MENOMINEE      MOCLDY    25  16  68 W5        30.06R WCI  19
SAWYER-GWINN   CLEAR     16  12  86 CALM      30.00R
$$
MIZ001>003-009>011-084-260000-
WESTERN UPPER MICHIGAN

CITY           SKY/WX    TMP DP  RH WIND       PRES   REMARKS
IRON MOUNTAIN  CLEAR     15   9  76 CALM      30.00R
HOUGHTON       MOCLDY    20  12  71 SW5       29.98R WCI  13
COPPER HARBOR    N/A     19  11  70 W5        30.01R WCI  12
IRONWOOD       CLEAR     14   9  79 SW3       29.97R
$$

ABBREVIATIONS USED IN REMARKS
   TC - TEMPERATURE IN CELSIUS
  WCI - WIND CHILL INDEX
   HX - HEAT INDEX
  VSB - VISIBILITY




USA.gov is the U.S. government's official web portal to all federal, state and local government web resources and services.